カタログに戻る

ARIANE 42L+3 R/B

運用中GTO
NORAD 23687·ROCKET BODY·🇫🇷 France

打ち上げ Oct 19, 1995 から Guiana Space Centre

Loading…

TLE

経年Source: Space-Track

元期: Sep 14, 2026, 02:25 UTC

1 23687U 95055B   26257.10086031  .00000049  00000-0  54014-3 0  9991
2 23687   4.5106 225.1986 7236897  50.6664 353.7084  2.22344220250048

AllMySatでARIANE 42L+3 R/Bをリアルタイム追跡

Download on the App Store